Location: Ar Boullen
(48.4167°N, 5.0000°W)
Time: 14:02:03
(UTC+00:00)

Daily predictions for brighter satellites

Satellite Brightness Start Highest point End
(mag) Time Altitude Azimuth Time Altitude Azimuth Time Altitude Azimuth
BREEZE-M DEB (TANK) 4.2 19:57:24 10° WNW 20:01:51 88° N 20:19:20 10° ESE
Cosmos 1606 3.2 20:20:50 10° SSW 20:24:35 65° W 20:28:23 10° N
Cosmos 2278 Rocket 3.6 20:20:49 10° SE 20:24:36 19° E 20:28:24 10° ENE
Cosmos 1602 4.4 20:21:30 10° N 20:25:10 39° ENE 20:28:49 10° SE
USA 305 3.7 20:21:51 10° WNW 20:26:00 48° NNE 20:30:09 10° E
Cosmos 1782 3.7 20:24:07 10° SSE 20:27:36 29° E 20:31:06 10° NNE
Cosmos 1844 Rocket 2.8 20:22:48 10° SSW 20:28:22 84° WNW 20:34:01 10° NNE
Landsat 7 4.4 20:23:59 10° SE 20:28:28 44° ENE 20:33:00 10° N
IGS 5A 3.9 20:25:24 10° SE 20:29:21 45° ENE 20:33:21 10° N
Cosmos 1242 Rocket 2.8 20:26:37 10° S 20:30:02 47° E 20:33:28 10° NNE
Intercosmos 25 Rocket 4.3 20:24:20 10° NNW 20:30:42 72° W 20:34:41 10° S
BREEZE-M DEB (TANK) 4.2 20:20:38 10° WNW 20:32:09 57° SW 20:35:34 10° SE
Cosmos 1805 Rocket 3.8 20:28:28 10° NNW 20:32:50 73° W 20:37:09 10° S
CZ-4C R/B 3.2 20:28:34 10° NW 20:35:31 63° NE 20:43:40 10° SE
BREEZE M DEB (TANK) 4.1 20:34:04 10° WSW 20:37:53 88° SSE 20:50:59 10° ENE
SJ-6B 4.1 20:34:17 10° SSW 20:37:58 40° W 20:41:46 10° NNW
Cosmos 1633 Rocket 3.4 20:34:41 10° N 20:38:59 51° ENE 20:43:17 10° SSE
ATLAS 5 CENTAUR R/B 2.6 20:39:30 10° NW 20:45:03 68° SW 20:51:35 10° SSE
USA 306 3.5 20:41:11 10° WNW 20:45:24 55° NNE 20:49:36 10° E
Meteor 1-25 Rocket 4.4 20:41:26 10° NNW 20:47:19 84° W 20:53:10 10° S
Cosmos 1503 Rocket 4.0 20:44:51 10° SSW 20:50:01 84° ESE 20:55:16 10° NNE
Cosmos 1328 Rocket 4.0 20:45:50 10° SSE 20:50:01 43° E 20:54:13 10° NNE
Cosmos 1812 4.0 20:47:18 12° SE 20:50:06 24° E 20:53:15 10° NE
Cosmos 1470 Rocket 4.2 20:46:59 10° N 20:51:15 41° ENE 20:55:01 13° SE
ARIANE 5 R/B 3.4 20:52:22 13° SE 20:55:50 35° ENE 20:59:48 10° N
Ariane Rocket 3.9 20:53:15 10° S 20:58:08 49° W 21:03:04 10° NNW
Cosmos 1666 4.0 20:55:04 10° NNE 20:58:13 25° ENE 21:00:28 15° ESE
Cosmos 1844 4.3 20:52:55 10° SW 20:58:36 64° WNW 21:04:15 10° NNE
CARTOSAT-1 4.4 20:56:42 14° SE 21:00:01 36° ENE 21:03:58 10° N
Cosmos 1833 Rocket 2.9 20:56:47 10° NNW 21:02:25 61° ENE 21:07:05 15° SE
Meteor 1-5 Rocket 4.5 20:58:56 10° N 21:04:10 48° ENE 21:08:22 15° SE
BREEZE-M R/B 1.5 21:02:04 10° WSW 21:04:37 81° SSE 21:07:09 10° ENE
Cosmos 1933 Rocket 4.3 21:01:26 10° N 21:05:29 37° ENE 21:08:26 16° SE
Cosmos 1437 2.5 21:05:01 13° S 21:07:23 52° E 21:10:10 10° NNE
Cosmos 1666 Rocket 3.8 21:03:02 10° NNW 21:07:26 70° W 21:11:45 10° S
Cosmos 1709 Rocket 4.0 21:03:22 10° N 21:09:31 82° W 21:15:37 10° S
USA 307 3.1 21:07:50 10° WNW 21:12:06 68° NNE 21:15:38 15° ESE
CZ-2C R/B 3.6 21:10:47 10° NNE 21:15:17 70° ESE 21:19:49 10° S
Cosmos 2074 Rocket 4.4 21:11:29 10° N 21:17:35 49° ENE 21:22:14 17° SE
NOSS 3-4 (A) 4.1 21:11:00 10° NW 21:17:46 61° NE 21:24:06 15° ESE
NOSS 3-4 (C) 4.1 21:11:06 10° NW 21:17:52 61° NE 21:24:13 15° ESE
OBJECT-B 4.0 21:19:05 10° WSW 21:19:53 11° W 21:20:41 10° WNW
USA 245 1.7 21:20:53 34° SSE 21:21:41 77° ENE 21:23:57 10° N
SJ 16-02 2.0 21:19:30 17° SSE 21:22:22 35° ESE 21:26:26 10° NE
USA 308 3.0 21:21:26 10° WNW 21:25:44 78° NNE 21:28:44 19° ESE
NOSS 3-3 (A) 3.9 21:21:50 10° SW 21:27:37 87° SE 21:34:19 10° NE
NOSS 3-3 (C) 3.9 21:21:56 10° SW 21:27:44 87° SE 21:34:26 10° NE
SPOT 1/Viking Rocket 3.6 21:23:33 14° SSE 21:28:04 81° WSW 21:33:18 10° NNW
Cosmos 1500 3.2 21:24:32 10° NNW 21:28:18 76° W 21:30:59 18° S
ATLAS 2AS CENTAUR R/B 3.5 21:23:55 10° NW 21:31:12 49° NE 21:37:04 14° ESE
Cosmos 2315 Rocket 4.3 21:28:40 10° SSW 21:35:01 72° W 21:41:26 10° N
CREW DRAGON DEMO-1 DEB 2.3 21:32:35 10° WNW 21:35:14 79° SSW 21:35:56 44° SE
Iridium 4 Rocket 3.9 21:30:59 18° SSE 21:35:17 59° E 21:41:06 10° N
Terra 2.4 21:33:01 22° SE 21:35:45 44° ENE 21:40:17 10° N
X-37B 2.5 21:34:22 10° WSW 21:36:37 18° SSW 21:36:59 17° SSW
USA 215 4.4 21:32:40 10° ENE 21:38:44 42° N 21:44:47 10° WNW
Cosmos 1151 Rocket 4.0 21:35:25 10° SSW 21:39:38 48° WNW 21:43:54 10° N
SPOT 5 3.1 21:38:32 22° SSE 21:41:49 70° ENE 21:47:07 10° N
Cosmos 2082 Rocket 2.3 21:36:46 10° NNW 21:42:23 64° ENE 21:45:50 24° SE
Cosmos 158 Rocket 3.9 21:39:17 10° NNW 21:44:09 65° ENE 21:46:51 26° SE
Resurs 01 Rocket 3.3 21:40:44 10° SSW 21:44:35 29° W 21:48:28 10° NW
Cosmos 2084 3.8 21:40:40 10° SW 21:44:47 66° NW 21:49:03 10° NE
Cosmos 2228 Rocket 3.6 21:45:34 27° SE 21:47:26 42° E 21:51:40 10° NNE
Cosmos 44 4.5 21:43:10 10° NNW 21:48:19 40° NE 21:51:59 17° ESE
COSMOS 2406 3.4 21:43:19 10° NNW 21:48:56 65° WSW 21:52:38 22° S
Cosmos 1538 Rocket 4.3 21:50:33 10° NNW 21:55:53 66° WSW 21:59:07 24° S
Cosmos 1271 Rocket 2.7 21:54:20 28° S 21:56:19 71° E 22:00:19 10° NNE
Meteor 2-6 Rocket 4.2 21:54:18 12° SSW 21:59:17 82° WNW 22:04:52 10° N
BREEZE-M DEB (TANK) 4.0 21:49:39 10° W 21:59:42 62° NNW 22:02:43 10° ENE
Meteor 1-27 Rocket 4.0 21:58:45 26° SSE 22:01:57 54° E 22:07:43 10° NNE
CZ-4B DEB 4.2 22:04:46 53° SE 22:05:24 74° ENE 22:08:37 10° N
Spot 2 Rocket 4.1 22:02:17 19° S 22:05:45 50° W 22:10:41 10° NNW
USA 305 3.0 22:01:52 10° WNW 22:06:04 60° SW 22:07:27 38° SSE
Cosmos 2278 Rocket 2.3 22:02:21 10° SSW 22:08:00 78° WNW 22:13:43 10° NNE
Milstar 3 4.4 21:59:43 10° SW 22:08:52 23° S 22:10:46 22° S
SL-24 R/B - RUBIN 2 4.5 22:04:54 10° NW 22:10:26 54° NE 22:13:07 26° ESE
Cosmos 1515 Rocket 4.3 22:06:42 12° SSW 22:10:37 50° WNW 22:14:55 10° N
Cosmos 1680 Rocket 3.7 22:07:08 10° NNW 22:12:27 64° ENE 22:14:52 32° SE
ERS-1 Rocket 3.2 22:10:19 26° S 22:13:08 64° WSW 22:18:09 10° NNW
Cosmos 1869 Rocket 3.4 22:10:11 10° N 22:14:32 82° ENE 22:16:04 40° SSE
Cosmos 1943 Rocket 3.2 22:13:55 25° ESE 22:14:39 26° ESE 22:19:14 10° NE
Cosmos 2369 Rocket 3.9 22:17:10 15° E 22:17:10 15° E 22:20:11 10° ENE
Gbstr 26 Del rocket 4.3 22:10:15 10° WNW 22:17:56 74° NNE 22:23:47 13° E
Cosmos 1238 Rocket 4.5 22:17:02 10° N 22:22:56 42° ENE 22:25:13 29° ESE
CZ-4C R/B 3.7 22:17:16 10° NW 22:24:08 43° WSW 22:28:58 22° S
USA 306 3.3 22:21:15 10° WNW 22:25:20 45° SW 22:26:02 41° S
Meteor 1-11 Rocket 4.0 22:21:15 10° NNW 22:27:13 70° W 22:30:24 28° S
Okean 1 4.4 22:29:36 29° E 22:29:37 29° E 22:33:07 10° NNE
Cosmos 1340 Rocket 2.8 22:26:07 10° N 22:30:13 70° ENE 22:31:03 52° SE
Cosmos 1818 4.1 22:26:02 10° NNW 22:31:26 54° NE 22:34:11 28° ESE
ARIANE 5 R/B 4.3 22:29:54 16° SW 22:32:22 26° W 22:36:03 10° NW
Cosmos 1666 4.4 22:30:35 10° NNW 22:33:43 26° W 22:35:19 19° SW
Cosmos 1707 Rocket 3.7 22:32:59 47° SE 22:33:49 55° E 22:38:07 10° NNE
SL-8 Rocket 4.3 22:32:41 10° N 22:38:55 54° ENE 22:41:32 33° SE
ALOS 2 4.1 22:41:06 21° E 22:42:22 24° ENE 22:45:56 10° N
Cosmos 1536 3.3 22:41:20 10° NNW 22:45:18 52° W 22:46:16 41° SW
Cosmos 1833 Rocket 4.3 22:41:25 10° NW 22:45:54 25° WSW 22:48:46 17° SW
Cosmos 923 Rocket 4.5 22:43:35 10° NNW 22:48:41 53° WSW 22:50:32 35° SSW
Cosmos 1743 2.5 22:45:15 10° N 22:49:07 87° W 22:49:32 70° S
Cosmos 1898 Rocket 3.4 22:47:28 40° S 22:49:25 74° ESE 22:54:46 10° NNE
Cosmos 2154 Rocket 4.4 22:45:01 10° NNW 22:51:12 56° W 22:54:30 27° SSW
USA 307 3.9 22:48:04 10° WNW 22:51:43 32° SW 22:51:43 32° SW
H-2A R/B 4.3 22:48:47 10° N 22:52:50 48° WNW 22:54:45 27° SW
Cosmos 1975 3.4 22:56:25 10° N 23:00:14 42° ENE 23:00:28 42° E
SJ 16-02 3.2 22:57:09 10° WSW 23:01:00 28° WNW 23:04:53 10° N
RESURS DK-1 4.2 22:58:26 10° N 23:01:53 24° NE 23:03:31 19° E
Cosmos 990 Rocket 4.1 23:00:01 30° SW 23:02:39 73° WNW 23:07:56 10° NNE
Cosmos 1733 Rocket 2.9 22:59:58 10° N 23:04:18 89° ENE 23:04:54 66° S
USA 308 4.3 23:01:49 10° WNW 23:04:49 25° WSW 23:04:49 25° WSW
Cosmos 1461 3.8 23:07:22 39° ESE 23:07:22 39° ESE 23:11:11 10° NE
Cosmos 2297 3.6 23:04:38 37° SSW 23:06:59 83° ESE 23:12:42 10° NNE
Cosmos 372 Rocket 4.3 23:07:02 43° ESE 23:07:28 44° ESE 23:12:18 10° NE
Cosmos 1959 Rocket 4.5 23:02:52 10° N 23:09:08 72° E 23:11:16 42° SSE
Cosmos 1900 4.3 23:09:19 45° SSW 23:10:55 82° SE 23:15:59 10° NE
Cosmos 1544 4.2 23:07:47 10° NNW 23:11:04 33° W 23:11:19 32° WSW
Terra 3.4 23:11:54 20° SW 23:13:41 25° W 23:17:38 10° NW
ERBS 2.9 23:13:06 10° NW 23:16:00 55° N 23:16:00 55° N
Meteor 1-18 Rocket 4.2 23:16:27 48° SSE 23:17:56 70° E 23:23:30 10° NNE
Cosmos 1908 Rocket 4.0 23:14:47 10° N 23:19:10 50° ENE 23:19:43 47° ESE
USA 215 3.7 23:14:45 10° E 23:21:09 59° NNE 23:27:33 10° NW
ATLAS 2AS CENTAUR R/B 3.1 23:15:13 10° NW 23:22:17 52° WSW 23:24:29 39° S
Cosmos 1867 4.5 23:25:56 32° ESE 23:25:56 32° ESE 23:30:27 10° NE
Cosmos 2082 Rocket 3.7 23:21:41 10° NW 23:25:58 23° WSW 23:27:41 20° SW
Cosmos 44 3.9 23:24:31 10° NW 23:29:42 46° WSW 23:30:23 43° SW
Cosmos 2181 Rocket 3.9 23:29:26 42° SSW 23:31:40 82° W 23:37:50 10° N
Spot 4 3.9 23:34:25 55° SSW 23:35:15 66° WSW 23:40:06 10° NNW
Cosmos 2084 Rocket 3.8 23:31:49 10° NW 23:35:44 51° WSW 23:35:44 51° WSW
ATLAS CENTAUR R/B 3.6 23:38:30 13° ENE 23:38:30 13° ENE 23:39:06 10° ENE
Cosmos 2366 rocket 4.0 23:32:28 10° NNW 23:38:38 72° W 23:40:37 45° SSW
Cosmos 1821 Rocket 4.4 23:32:52 10° N 23:39:12 57° ENE 23:41:25 39° SE
Cosmos 1862 Rocket 4.1 23:47:47 43° WSW 23:48:28 47° WNW 23:52:40 10° N
Cosmos 1703 Rocket 3.6 23:48:52 64° ESE 23:48:56 64° E 23:53:19 10° NNE
Okean 3 4.5 23:50:46 34° E 23:50:46 34° E 23:54:29 10° NNE
Cosmos 1782 Rocket 3.8 23:46:36 10° N 23:51:01 59° ENE 23:51:22 57° E
Cosmos 1937 Rocket 4.2 23:49:39 29° WSW 23:51:53 48° WNW 23:56:55 10° NNE
Lacrosse 5 4.2 23:54:51 11° E 23:54:51 11° E 23:55:07 10° E
